UAL2146 KLAX-KDEN

Flight info

Callsign UAL2146
Flight time 1h 44m
Altitude 35000
Route ORCKA5 LAS J146 DICEE BUMMP SSKII4
Aircraft A20N/M-SDE2E3FGHIRWXY/LB1

Departure

Time 2026-04-26 15:43
Airport Los Angeles International Airport (KLAX)

Arrival

Time 2026-04-26 17:28
Airport Denver International Airport (KDEN)
Time Latitude Longitude Altitude Speed Heading
2026-04-26 14:58 33.94204 -118.39778 125 ft 0 kts 83°
2026-04-26 15:33 33.94201 -118.39803 124 ft 4 kts 86°
2026-04-26 15:33 33.94202 -118.39834 122 ft 4 kts 121°
2026-04-26 15:33 33.94211 -118.39845 124 ft 1 kts 171°
2026-04-26 15:37 33.94189 -118.39842 121 ft 5 kts 174°
2026-04-26 15:38 33.94138 -118.39834 122 ft 10 kts 172°
2026-04-26 15:38 33.94061 -118.39826 124 ft 12 kts 184°
2026-04-26 15:38 33.93975 -118.39817 123 ft 11 kts 168°
2026-04-26 15:38 33.93911 -118.39759 121 ft 13 kts 105°
2026-04-26 15:39 33.93916 -118.39637 125 ft 16 kts 83°
2026-04-26 15:39 33.93931 -118.39490 125 ft 19 kts 81°
2026-04-26 15:39 33.93946 -118.39328 124 ft 20 kts 81°
2026-04-26 15:39 33.93962 -118.39214 124 ft 22 kts 82°
2026-04-26 15:40 33.93988 -118.38956 124 ft 25 kts 81°
2026-04-26 15:40 33.94006 -118.38769 125 ft 20 kts 83°
2026-04-26 15:40 33.94023 -118.38593 125 ft 22 kts 82°
2026-04-26 15:40 33.94045 -118.38401 123 ft 23 kts 83°
2026-04-26 15:41 33.94062 -118.38220 125 ft 19 kts 84°
2026-04-26 15:41 33.94078 -118.38085 125 ft 15 kts 81°
2026-04-26 15:41 33.94052 -118.38003 125 ft 10 kts 150°
2026-04-26 15:41 33.93985 -118.38016 124 ft 11 kts 232°
2026-04-26 15:42 33.93973 -118.38113 125 ft 13 kts 263°
2026-04-26 15:42 33.93963 -118.38223 123 ft 15 kts 260°
2026-04-26 15:42 33.93928 -118.38534 125 ft 70 kts 263°
2026-04-26 15:42 33.93847 -118.39361 125 ft 126 kts 263°
2026-04-26 15:43 33.93725 -118.40587 138 ft 166 kts 263°
2026-04-26 15:43 33.93576 -118.42061 320 ft 187 kts 263°
2026-04-26 15:43 33.93247 -118.45248 1804 ft 179 kts 263°
2026-04-26 15:44 33.93177 -118.45919 2056 ft 185 kts 264°
2026-04-26 15:44 33.92446 -118.48958 2639 ft 226 kts 249°
2026-04-26 15:44 33.91803 -118.50787 3179 ft 247 kts 248°
2026-04-26 15:45 33.90665 -118.53877 4815 ft 251 kts 248°
2026-04-26 15:45 33.89929 -118.55800 5870 ft 253 kts 247°
2026-04-26 15:46 33.87256 -118.58595 7662 ft 277 kts 197°
2026-04-26 15:46 33.85293 -118.58633 8526 ft 292 kts 170°
2026-04-26 15:46 33.83467 -118.57653 9341 ft 305 kts 145°
2026-04-26 15:46 33.82533 -118.56592 9853 ft 310 kts 129°
2026-04-26 15:47 33.81349 -118.53405 10590 ft 331 kts 97°
2026-04-26 15:47 33.82446 -118.47911 11364 ft 353 kts 49°
2026-04-26 15:47 33.84223 -118.45922 12138 ft 347 kts 26°
2026-04-26 15:48 33.86445 -118.44895 12897 ft 341 kts
2026-04-26 15:48 33.88792 -118.44414 13671 ft 346 kts
2026-04-26 15:48 33.91119 -118.43699 14361 ft 356 kts 16°
2026-04-26 15:48 33.93159 -118.42319 14943 ft 371 kts 33°
2026-04-26 15:49 33.94990 -118.40069 15591 ft 383 kts 47°
2026-04-26 15:49 33.96625 -118.37473 16235 ft 390 kts 50°
2026-04-26 15:49 33.98178 -118.34802 16881 ft 395 kts 52°
2026-04-26 15:49 33.99739 -118.32036 17512 ft 401 kts 52°
2026-04-26 15:50 34.01310 -118.29231 18147 ft 406 kts 52°
2026-04-26 15:50 34.02904 -118.26395 18706 ft 411 kts 52°
2026-04-26 15:50 34.04503 -118.23560 19297 ft 414 kts 52°
2026-04-26 15:50 34.06130 -118.20682 19871 ft 418 kts 52°
2026-04-26 15:51 34.07786 -118.17754 20480 ft 422 kts 52°
2026-04-26 15:51 34.09441 -118.14825 21050 ft 426 kts 52°
2026-04-26 15:51 34.11123 -118.11848 21626 ft 430 kts 53°
2026-04-26 15:51 34.12812 -118.08854 22194 ft 433 kts 53°
2026-04-26 15:52 34.14513 -118.05836 22745 ft 437 kts 53°
2026-04-26 15:52 34.16238 -118.02773 23305 ft 441 kts 53°
2026-04-26 15:52 34.17960 -117.99713 23812 ft 444 kts 53°
2026-04-26 15:52 34.19114 -117.97661 24115 ft 447 kts 53°
2026-04-26 15:53 34.21461 -117.93484 24643 ft 452 kts 53°
2026-04-26 15:53 34.23229 -117.90334 25111 ft 455 kts 53°
2026-04-26 15:53 34.24999 -117.87178 25521 ft 458 kts 53°
2026-04-26 15:53 34.26773 -117.84013 25921 ft 462 kts 53°
2026-04-26 15:54 34.28542 -117.80854 26313 ft 466 kts 53°
2026-04-26 15:54 34.30340 -117.77639 26732 ft 468 kts 53°
2026-04-26 15:54 34.32171 -117.74363 27132 ft 472 kts 53°
2026-04-26 15:54 34.34029 -117.71035 27510 ft 476 kts 53°
2026-04-26 15:55 34.35887 -117.67715 27894 ft 478 kts 53°
2026-04-26 15:55 34.37820 -117.64431 28250 ft 481 kts 51°
2026-04-26 15:55 34.39802 -117.61156 28589 ft 483 kts 51°
2026-04-26 15:55 34.41800 -117.57860 28941 ft 486 kts 51°
2026-04-26 15:56 34.43799 -117.54541 29290 ft 489 kts 51°
2026-04-26 15:56 34.45803 -117.51193 29626 ft 492 kts 51°
2026-04-26 15:56 34.47813 -117.47821 29961 ft 494 kts 51°
2026-04-26 15:56 34.49804 -117.44474 30264 ft 497 kts 51°
2026-04-26 15:57 34.51827 -117.41067 30530 ft 500 kts 51°
2026-04-26 15:57 34.53888 -117.37593 30801 ft 503 kts 52°
2026-04-26 15:57 34.55910 -117.34182 31072 ft 505 kts 52°
2026-04-26 15:57 34.57288 -117.31855 31301 ft 506 kts 52°
2026-04-26 15:58 34.60026 -117.27228 31752 ft 507 kts 52°
2026-04-26 15:58 34.62083 -117.23748 32069 ft 508 kts 52°
2026-04-26 15:58 34.64136 -117.20271 32377 ft 509 kts 52°
2026-04-26 15:58 34.66206 -117.16763 32673 ft 510 kts 52°
2026-04-26 15:59 34.68276 -117.13250 32975 ft 511 kts 52°
2026-04-26 15:59 34.70348 -117.09732 33246 ft 512 kts 52°
2026-04-26 15:59 34.72427 -117.06199 33493 ft 513 kts 52°
2026-04-26 15:59 34.74500 -117.02672 33778 ft 514 kts 52°
2026-04-26 16:00 34.76585 -116.99121 34025 ft 515 kts 52°
2026-04-26 16:00 34.78649 -116.95602 34271 ft 516 kts 52°
2026-04-26 16:00 34.80733 -116.92045 34506 ft 516 kts 52°
2026-04-26 16:00 34.82820 -116.88479 34747 ft 517 kts 52°
2026-04-26 16:01 34.84912 -116.84902 34853 ft 517 kts 52°
2026-04-26 16:01 34.89055 -116.77807 34883 ft 517 kts 52°
2026-04-26 16:02 34.93419 -116.70874 34876 ft 513 kts 43°
2026-04-26 16:02 34.98296 -116.64496 34860 ft 512 kts 44°
2026-04-26 16:03 35.03133 -116.58120 34844 ft 512 kts 44°
2026-04-26 16:03 35.07939 -116.51773 34842 ft 511 kts 44°
2026-04-26 16:04 35.12755 -116.45403 34843 ft 510 kts 44°
2026-04-26 16:04 35.17568 -116.39025 34834 ft 509 kts 44°
2026-04-26 16:05 35.22374 -116.32646 34825 ft 508 kts 44°
2026-04-26 16:05 35.27133 -116.26317 34819 ft 507 kts 44°
2026-04-26 16:06 35.31907 -116.19956 34806 ft 506 kts 44°
2026-04-26 16:06 35.36660 -116.13611 34806 ft 506 kts 44°
2026-04-26 16:07 35.41395 -116.07279 34809 ft 506 kts 45°
2026-04-26 16:07 35.46147 -116.00912 34817 ft 506 kts 45°
2026-04-26 16:08 35.50910 -115.94518 34822 ft 507 kts 45°
2026-04-26 16:08 35.54863 -115.89202 34829 ft 507 kts 45°
2026-04-26 16:09 35.60399 -115.81743 34832 ft 507 kts 45°
2026-04-26 16:09 35.65148 -115.75318 34832 ft 508 kts 45°
2026-04-26 16:10 35.69089 -115.69896 34834 ft 508 kts 45°
2026-04-26 16:10 35.73767 -115.63443 34836 ft 508 kts 45°
2026-04-26 16:11 35.78485 -115.56934 34826 ft 508 kts 45°
2026-04-26 16:11 35.83183 -115.50444 34828 ft 509 kts 45°
2026-04-26 16:12 35.87895 -115.43923 34827 ft 509 kts 45°
2026-04-26 16:12 35.94957 -115.34126 34819 ft 509 kts 45°
2026-04-26 16:13 35.99659 -115.27587 34837 ft 509 kts 45°
2026-04-26 16:13 36.04317 -115.21094 34807 ft 509 kts 46°
2026-04-26 16:14 36.08360 -115.13862 34813 ft 513 kts 61°
2026-04-26 16:15 36.12397 -115.01609 34804 ft 513 kts 69°
2026-04-26 16:15 36.14946 -114.93375 34746 ft 513 kts 69°
2026-04-26 16:16 36.18753 -114.80981 34735 ft 512 kts 69°
2026-04-26 16:16 36.21264 -114.72782 34715 ft 512 kts 69°
2026-04-26 16:17 36.23802 -114.64483 34710 ft 512 kts 69°
2026-04-26 16:17 36.26300 -114.56288 34704 ft 512 kts 69°
2026-04-26 16:18 36.30061 -114.43901 34706 ft 511 kts 69°
2026-04-26 16:19 36.33810 -114.31499 34699 ft 511 kts 69°
2026-04-26 16:20 36.37526 -114.19152 34711 ft 512 kts 69°
2026-04-26 16:20 36.41251 -114.06720 34713 ft 512 kts 70°
2026-04-26 16:21 36.43727 -113.98423 34715 ft 512 kts 70°
2026-04-26 16:21 36.46192 -113.90144 34711 ft 512 kts 70°
2026-04-26 16:22 36.48662 -113.81821 34717 ft 513 kts 70°
2026-04-26 16:22 36.51114 -113.73534 34711 ft 513 kts 70°
2026-04-26 16:23 36.53574 -113.65196 34719 ft 514 kts 70°
2026-04-26 16:23 36.56034 -113.56833 34714 ft 515 kts 70°
2026-04-26 16:24 36.58487 -113.48466 34723 ft 515 kts 70°
2026-04-26 16:24 36.60940 -113.40077 34714 ft 516 kts 70°
2026-04-26 16:25 36.63375 -113.31726 34722 ft 517 kts 70°
2026-04-26 16:25 36.65816 -113.23309 34724 ft 517 kts 70°
2026-04-26 16:26 36.67854 -113.16261 34755 ft 518 kts 70°
2026-04-26 16:26 36.70690 -113.06430 34773 ft 518 kts 70°
2026-04-26 16:27 36.73129 -112.97948 34796 ft 519 kts 70°
2026-04-26 16:27 36.75544 -112.89521 34790 ft 519 kts 70°
2026-04-26 16:28 36.77971 -112.81025 34790 ft 519 kts 71°
2026-04-26 16:28 36.80395 -112.72513 34768 ft 519 kts 71°
2026-04-26 16:29 36.82805 -112.64025 34754 ft 519 kts 71°
2026-04-26 16:29 36.85199 -112.55568 34733 ft 519 kts 71°
2026-04-26 16:30 36.87599 -112.47061 34739 ft 519 kts 71°
2026-04-26 16:30 36.89999 -112.38520 34730 ft 519 kts 71°
2026-04-26 16:31 36.92379 -112.30003 34734 ft 519 kts 71°
2026-04-26 16:31 36.94764 -112.21482 34723 ft 519 kts 71°
2026-04-26 16:32 36.96744 -112.14390 34722 ft 519 kts 71°
2026-04-26 16:32 36.99504 -112.04468 34715 ft 519 kts 71°
2026-04-26 16:33 37.01868 -111.95942 34719 ft 518 kts 71°
2026-04-26 16:33 37.04222 -111.87419 34703 ft 518 kts 71°
2026-04-26 16:34 37.06558 -111.78938 34727 ft 518 kts 71°
2026-04-26 16:34 37.08903 -111.70391 34722 ft 518 kts 71°
2026-04-26 16:35 37.11248 -111.61824 34733 ft 519 kts 71°
2026-04-26 16:35 37.13582 -111.53270 34746 ft 518 kts 71°
2026-04-26 16:36 37.15883 -111.44802 34727 ft 519 kts 71°
2026-04-26 16:36 37.18198 -111.36259 34728 ft 519 kts 71°
2026-04-26 16:37 37.20514 -111.27686 34708 ft 520 kts 71°
2026-04-26 16:37 37.23173 -111.19246 34690 ft 520 kts 62°
2026-04-26 16:38 37.26407 -111.11189 34694 ft 520 kts 62°
2026-04-26 16:38 37.29646 -111.03059 34682 ft 520 kts 63°
2026-04-26 16:39 37.32875 -110.94919 34684 ft 520 kts 63°
2026-04-26 16:39 37.36101 -110.86769 34676 ft 520 kts 63°
2026-04-26 16:40 37.39310 -110.78638 34663 ft 519 kts 63°
2026-04-26 16:40 37.42503 -110.70529 34651 ft 519 kts 63°
2026-04-26 16:41 37.45703 -110.62379 34662 ft 520 kts 63°
2026-04-26 16:41 37.48894 -110.54232 34657 ft 520 kts 63°
2026-04-26 16:42 37.52086 -110.46061 34671 ft 520 kts 63°
2026-04-26 16:42 37.55282 -110.37861 34674 ft 521 kts 63°
2026-04-26 16:43 37.58470 -110.29657 34681 ft 520 kts 63°
2026-04-26 16:43 37.61648 -110.21457 34686 ft 521 kts 63°
2026-04-26 16:44 37.64828 -110.13229 34702 ft 521 kts 63°
2026-04-26 16:44 37.67981 -110.05049 34701 ft 522 kts 63°
2026-04-26 16:45 37.71152 -109.96804 34711 ft 522 kts 63°
2026-04-26 16:45 37.74320 -109.88542 34719 ft 522 kts 63°
2026-04-26 16:46 37.77490 -109.80253 34748 ft 522 kts 63°
2026-04-26 16:46 37.80627 -109.72030 34756 ft 522 kts 63°
2026-04-26 16:47 37.83778 -109.63747 34765 ft 522 kts 63°
2026-04-26 16:47 37.86922 -109.55460 34755 ft 522 kts 63°
2026-04-26 16:48 37.90063 -109.47158 34751 ft 522 kts 63°
2026-04-26 16:48 37.93193 -109.38861 34724 ft 522 kts 63°
2026-04-26 16:49 37.96319 -109.30552 34724 ft 522 kts 63°
2026-04-26 16:49 37.99437 -109.22242 34721 ft 522 kts 63°
2026-04-26 16:50 38.02531 -109.13977 34725 ft 522 kts 63°
2026-04-26 16:50 38.05638 -109.05653 34728 ft 522 kts 63°
2026-04-26 16:51 38.08736 -108.97332 34731 ft 522 kts 63°
2026-04-26 16:51 38.11877 -108.89020 34724 ft 521 kts 61°
2026-04-26 16:52 38.14058 -108.83522 34729 ft 521 kts 60°
2026-04-26 16:52 38.18397 -108.72562 34723 ft 521 kts 61°
2026-04-26 16:53 38.21633 -108.64304 34735 ft 521 kts 61°
2026-04-26 16:53 38.24838 -108.56092 34733 ft 522 kts 61°
2026-04-26 16:54 38.28054 -108.47829 34733 ft 522 kts 61°
2026-04-26 16:54 38.31281 -108.39519 34727 ft 523 kts 60°
2026-04-26 16:55 38.34477 -108.31265 34719 ft 523 kts 60°
2026-04-26 16:55 38.37171 -108.24290 34739 ft 523 kts 60°
2026-04-26 16:56 38.41976 -108.11807 34786 ft 523 kts 60°
2026-04-26 16:57 38.45172 -108.03479 34821 ft 523 kts 60°
2026-04-26 16:57 38.49904 -107.91018 34832 ft 523 kts 61°
2026-04-26 16:58 38.52533 -107.84038 34837 ft 523 kts 60°
2026-04-26 16:59 38.57796 -107.70040 34795 ft 524 kts 60°
2026-04-26 17:00 38.64063 -107.53292 34747 ft 524 kts 60°
2026-04-26 17:00 38.68815 -107.40659 34741 ft 524 kts 60°
2026-04-26 17:01 38.72006 -107.32253 34742 ft 525 kts 60°
2026-04-26 17:01 38.75191 -107.23815 34755 ft 525 kts 60°
2026-04-26 17:02 38.78334 -107.15459 34767 ft 524 kts 60°
2026-04-26 17:02 38.81502 -107.07010 34753 ft 523 kts 60°
2026-04-26 17:03 38.84378 -106.99322 34744 ft 523 kts 60°
2026-04-26 17:03 38.87518 -106.90903 34728 ft 522 kts 60°
2026-04-26 17:04 38.90648 -106.82488 34735 ft 521 kts 60°
2026-04-26 17:04 38.93747 -106.74132 34750 ft 521 kts 60°
2026-04-26 17:05 38.96704 -106.66144 34493 ft 519 kts 60°
2026-04-26 17:05 38.98255 -106.61941 34258 ft 519 kts 60°
2026-04-26 17:05 38.99778 -106.57813 34042 ft 519 kts 60°
2026-04-26 17:06 39.01329 -106.53599 33587 ft 521 kts 61°
2026-04-26 17:06 39.02878 -106.49373 32843 ft 522 kts 61°
2026-04-26 17:06 39.04423 -106.45146 32083 ft 523 kts 61°
2026-04-26 17:06 39.05971 -106.40905 31273 ft 525 kts 61°
2026-04-26 17:07 39.07515 -106.36667 30767 ft 518 kts 62°
2026-04-26 17:07 39.09031 -106.32497 30494 ft 507 kts 62°
2026-04-26 17:07 39.10487 -106.28486 30183 ft 497 kts 62°
2026-04-26 17:07 39.11942 -106.24478 29634 ft 492 kts 62°
2026-04-26 17:08 39.13385 -106.20504 29113 ft 487 kts 62°
2026-04-26 17:08 39.14809 -106.16576 28564 ft 481 kts 62°
2026-04-26 17:08 39.16217 -106.12680 27973 ft 476 kts 62°
2026-04-26 17:08 39.17604 -106.08828 27406 ft 471 kts 62°
2026-04-26 17:09 39.18980 -106.05002 26878 ft 466 kts 63°
2026-04-26 17:09 39.19873 -106.02514 26522 ft 463 kts 63°
2026-04-26 17:09 39.21671 -105.97500 25799 ft 457 kts 63°
2026-04-26 17:09 39.22992 -105.93807 25287 ft 452 kts 63°
2026-04-26 17:10 39.24303 -105.90146 24773 ft 448 kts 63°
2026-04-26 17:10 39.25595 -105.86554 24267 ft 444 kts 63°
2026-04-26 17:10 39.26896 -105.82950 23773 ft 440 kts 63°
2026-04-26 17:10 39.28180 -105.79388 23307 ft 436 kts 63°
2026-04-26 17:11 39.29450 -105.75859 22775 ft 431 kts 63°
2026-04-26 17:11 39.30698 -105.72383 22281 ft 426 kts 63°
2026-04-26 17:11 39.31936 -105.68932 21856 ft 417 kts 63°
2026-04-26 17:11 39.33131 -105.65599 21500 ft 405 kts 63°
2026-04-26 17:12 39.35516 -105.59074 20623 ft 396 kts 63°
2026-04-26 17:12 39.36688 -105.55875 20185 ft 392 kts 63°
2026-04-26 17:13 39.38996 -105.49549 19301 ft 385 kts 64°
2026-04-26 17:13 39.40133 -105.46423 18875 ft 381 kts 64°
2026-04-26 17:13 39.41646 -105.40158 18369 ft 354 kts 84°
2026-04-26 17:14 39.41723 -105.37005 18026 ft 349 kts 91°
2026-04-26 17:14 39.41746 -105.30849 17212 ft 344 kts 90°
2026-04-26 17:14 39.41765 -105.27762 16792 ft 342 kts 90°
2026-04-26 17:15 39.41797 -105.21792 15997 ft 337 kts 91°
2026-04-26 17:15 39.41811 -105.18750 15580 ft 335 kts 91°
2026-04-26 17:15 39.41824 -105.15739 15245 ft 332 kts 91°
2026-04-26 17:16 39.41837 -105.12821 15101 ft 318 kts 91°
2026-04-26 17:16 39.41849 -105.10063 14957 ft 301 kts 91°
2026-04-26 17:16 39.41859 -105.07540 14865 ft 289 kts 91°
2026-04-26 17:16 39.41867 -105.04983 14644 ft 282 kts 91°
2026-04-26 17:17 39.41875 -105.02448 14279 ft 282 kts 91°
2026-04-26 17:17 39.41882 -104.99914 13962 ft 280 kts 91°
2026-04-26 17:17 39.41889 -104.97403 13639 ft 279 kts 90°
2026-04-26 17:17 39.41896 -104.94907 13289 ft 277 kts 90°
2026-04-26 17:18 39.42058 -104.92433 12946 ft 275 kts 83°
2026-04-26 17:18 39.42285 -104.89979 12612 ft 273 kts 84°
2026-04-26 17:18 39.42504 -104.87547 12266 ft 272 kts 84°
2026-04-26 17:18 39.42719 -104.85116 11888 ft 270 kts 84°
2026-04-26 17:19 39.43144 -104.80330 11165 ft 265 kts 84°
2026-04-26 17:19 39.43351 -104.77981 10832 ft 264 kts 84°
2026-04-26 17:19 39.43692 -104.75644 10460 ft 263 kts 72°
2026-04-26 17:20 39.44358 -104.73455 10136 ft 261 kts 66°
2026-04-26 17:20 39.44969 -104.72135 10035 ft 255 kts 47°
2026-04-26 17:20 39.46936 -104.70437 9974 ft 258 kts 24°
2026-04-26 17:20 39.48556 -104.69503 9975 ft 256 kts 14°
2026-04-26 17:21 39.50296 -104.69133 9978 ft 254 kts
2026-04-26 17:21 39.52070 -104.69100 9980 ft 254 kts 357°
2026-04-26 17:21 39.53828 -104.69099 9979 ft 253 kts 358°
2026-04-26 17:21 39.55597 -104.69078 9981 ft 254 kts 358°
2026-04-26 17:22 39.57368 -104.69058 9978 ft 254 kts 358°
2026-04-26 17:22 39.59147 -104.69037 9963 ft 255 kts 358°
2026-04-26 17:22 39.60874 -104.69016 9968 ft 255 kts 358°
2026-04-26 17:22 39.62645 -104.68996 9930 ft 256 kts 358°
2026-04-26 17:23 39.64434 -104.68975 9669 ft 257 kts 358°
2026-04-26 17:23 39.66213 -104.68954 9301 ft 255 kts 359°
2026-04-26 17:23 39.67947 -104.68933 8938 ft 243 kts 359°
2026-04-26 17:23 39.69080 -104.68920 8708 ft 232 kts 359°
2026-04-26 17:24 39.70484 -104.68903 8482 ft 216 kts 359°
2026-04-26 17:24 39.71808 -104.68890 8206 ft 223 kts 359°
2026-04-26 17:24 39.73345 -104.68871 7900 ft 219 kts 359°
2026-04-26 17:24 39.74853 -104.68854 7597 ft 210 kts 359°
2026-04-26 17:25 39.76254 -104.68837 7328 ft 191 kts 360°
2026-04-26 17:25 39.77518 -104.68822 7097 ft 171 kts
2026-04-26 17:25 39.78601 -104.68810 6914 ft 154 kts
2026-04-26 17:25 39.79608 -104.68798 6728 ft 144 kts
2026-04-26 17:26 39.80619 -104.68786 6545 ft 145 kts
2026-04-26 17:26 39.81623 -104.68775 6365 ft 143 kts
2026-04-26 17:26 39.82567 -104.68764 6180 ft 144 kts
2026-04-26 17:26 39.83562 -104.68752 5974 ft 144 kts
2026-04-26 17:27 39.84574 -104.68740 5777 ft 144 kts
2026-04-26 17:27 39.85431 -104.68730 5612 ft 145 kts
2026-04-26 17:27 39.86432 -104.68718 5404 ft 145 kts
2026-04-26 17:27 39.87395 -104.68710 5358 ft 118 kts
2026-04-26 17:28 39.88027 -104.68702 5361 ft 72 kts
2026-04-26 17:28 39.88421 -104.68685 5361 ft 34 kts 14°
2026-04-26 17:28 39.88564 -104.68601 5360 ft 15 kts 30°
2026-04-26 17:28 39.88598 -104.68511 5360 ft 12 kts 112°
2026-04-26 17:29 39.88525 -104.68479 5363 ft 13 kts 180°
2026-04-26 17:29 39.88463 -104.68480 5363 ft 14 kts 182°
2026-04-26 17:29 39.88316 -104.68484 5361 ft 17 kts 180°
2026-04-26 17:29 39.88188 -104.68484 5361 ft 20 kts 179°
2026-04-26 17:30 39.88046 -104.68486 5360 ft 21 kts 182°
2026-04-26 17:30 39.87891 -104.68492 5358 ft 23 kts 181°
2026-04-26 17:30 39.87743 -104.68493 5357 ft 22 kts 180°
2026-04-26 17:30 39.87586 -104.68492 5357 ft 23 kts 180°
2026-04-26 17:31 39.87423 -104.68493 5358 ft 24 kts 180°
2026-04-26 17:31 39.87256 -104.68498 5358 ft 24 kts 181°
2026-04-26 17:31 39.87094 -104.68496 5360 ft 23 kts 180°
2026-04-26 17:31 39.86952 -104.68498 5361 ft 19 kts 181°
2026-04-26 17:32 39.86828 -104.68499 5362 ft 18 kts 178°
2026-04-26 17:32 39.86700 -104.68502 5361 ft 19 kts 183°
2026-04-26 17:32 39.86565 -104.68503 5363 ft 20 kts 180°
2026-04-26 17:32 39.86424 -104.68505 5363 ft 21 kts 179°
2026-04-26 17:33 39.86283 -104.68508 5364 ft 20 kts 180°
2026-04-26 17:33 39.86146 -104.68510 5365 ft 18 kts 180°
2026-04-26 17:33 39.86056 -104.68498 5367 ft 11 kts 149°
2026-04-26 17:34 39.86030 -104.68345 5374 ft 8 kts 93°
2026-04-26 17:34 39.86029 -104.68269 5375 ft 9 kts 88°
2026-04-26 17:34 39.86020 -104.68177 5373 ft 11 kts 99°
2026-04-26 17:34 39.86016 -104.68069 5376 ft 13 kts 90°
2026-04-26 17:35 39.86013 -104.67945 5377 ft 15 kts 92°
2026-04-26 17:35 39.86015 -104.67809 5377 ft 15 kts 90°
2026-04-26 17:35 39.86017 -104.67687 5377 ft 11 kts 91°
2026-04-26 17:35 39.86014 -104.67616 5377 ft 7 kts 89°
2026-04-26 17:36 39.86004 -104.67581 5374 ft 1 kts 184°
2026-04-26 17:36 39.85985 -104.67599 5377 ft 6 kts 211°
2026-04-26 17:36 39.85957 -104.67609 5375 ft 1 kts 186°
2026-04-26 17:36 39.85942 -104.67610 5375 ft 2 kts 183°
2026-04-26 17:37 39.85937 -104.67610 5375 ft 0 kts 180°